{"data":{"norad_id":58711,"epoch":"2026-09-20T02:36:36.987552Z","epoch_age_seconds":183545,"freshness":"STALE","line1":"1 58711U 24002G   26263.10876143 -.00003353  00000+0 -88218-4 0  9995","line2":"2 58711  53.1611  43.2088 0001093  91.8844 268.2283 15.34374221151834","mean_motion":15.34374221,"eccentricity":0.0001093,"inclination_deg":53.1611,"raan_deg":43.2088,"arg_perigee_deg":91.8844,"mean_anomaly_deg":268.2283,"bstar":-8.8218e-5,"rev_number":15183,"period_min":93.849334816216,"perigee_km":462.03214968753,"apogee_km":463.52757411354,"semimajor_km":6840.9168619005,"source":"CELESTRAK","updated_at":"2026-09-21T09:00:33.947929Z"}}